Year,Month,Day,Hour,Minute,Value (Times are PST for temperature in C)
2009,04,23,00,00,5.10
2009,04,23,00,01,5.10
2009,04,23,00,02,5.10
2009,04,23,00,03,5.10
2009,04,23,00,04,5.10
2009,04,23,00,05,5.10
2009,04,23,00,06,5.10
2009,04,23,00,07,5.10
2009,04,23,00,08,5.10
2009,04,23,00,09,5.10
2009,04,23,00,10,5.10
2009,04,23,00,11,5.10
2009,04,23,00,12,5.10
2009,04,23,00,13,5.10
2009,04,23,00,14,5.10
2009,04,23,00,15,5.10
2009,04,23,00,16,5.10
2009,04,23,00,17,5.10
2009,04,23,00,18,5.10
2009,04,23,00,19,5.10
2009,04,23,00,20,5.10
2009,04,23,00,21,5.10
2009,04,23,00,22,5.10
2009,04,23,00,23,5.10
2009,04,23,00,24,5.10
2009,04,23,00,25,5.10
2009,04,23,00,26,5.10
2009,04,23,00,27,5.10
2009,04,23,00,28,5.10
2009,04,23,00,29,5.10
2009,04,23,00,30,5.10
2009,04,23,00,31,5.10
2009,04,23,00,32,5.10
2009,04,23,00,33,5.10
2009,04,23,00,34,5.10
2009,04,23,00,35,5.10
2009,04,23,00,36,5.10
2009,04,23,00,37,5.10
2009,04,23,00,38,5.10
2009,04,23,00,39,5.10
2009,04,23,00,40,5.10
2009,04,23,00,41,5.10
2009,04,23,00,42,5.10
2009,04,23,00,43,5.10
2009,04,23,00,44,5.10
2009,04,23,00,45,5.10
2009,04,23,00,46,5.10
2009,04,23,00,47,5.10
2009,04,23,00,48,5.10
2009,04,23,00,49,5.10
2009,04,23,00,50,5.10
2009,04,23,00,51,5.10
2009,04,23,00,52,5.10
2009,04,23,00,53,5.00
2009,04,23,00,54,4.90
2009,04,23,00,55,4.90
2009,04,23,00,56,4.90
2009,04,23,00,57,4.90
2009,04,23,00,58,4.90
2009,04,23,00,59,4.90
2009,04,23,01,00,4.90
2009,04,23,01,01,4.90
2009,04,23,01,02,4.90
2009,04,23,01,03,4.90
2009,04,23,01,04,4.80
2009,04,23,01,05,4.80
2009,04,23,01,06,4.80
2009,04,23,01,07,4.80
2009,04,23,01,08,4.80
2009,04,23,01,09,4.80
2009,04,23,01,10,4.80
2009,04,23,01,11,4.90
2009,04,23,01,12,4.90
2009,04,23,01,13,4.90
2009,04,23,01,14,4.90
2009,04,23,01,15,4.90
2009,04,23,01,16,4.90
2009,04,23,01,17,5.00
2009,04,23,01,18,5.10
2009,04,23,01,19,5.10
2009,04,23,01,20,5.10
2009,04,23,01,21,5.10
2009,04,23,01,22,5.10
2009,04,23,01,23,5.10
2009,04,23,01,24,5.10
2009,04,23,01,25,5.10
2009,04,23,01,26,5.10
2009,04,23,01,27,5.10
2009,04,23,01,28,5.10
2009,04,23,01,29,5.10
2009,04,23,01,30,5.10
2009,04,23,01,31,5.10
2009,04,23,01,32,5.10
2009,04,23,01,33,5.10
2009,04,23,01,34,5.10
2009,04,23,01,35,5.10
2009,04,23,01,36,5.10
2009,04,23,01,37,5.10
2009,04,23,01,38,5.10
2009,04,23,01,39,5.10
2009,04,23,01,40,5.10
2009,04,23,01,41,5.10
2009,04,23,01,42,5.10
2009,04,23,01,43,5.10
2009,04,23,01,44,5.10
2009,04,23,01,45,5.10
2009,04,23,01,46,5.10
2009,04,23,01,47,5.20
2009,04,23,01,48,5.20
2009,04,23,01,49,5.20
2009,04,23,01,50,5.20
2009,04,23,01,51,5.20
2009,04,23,01,52,5.20
2009,04,23,01,53,5.20
2009,04,23,01,54,5.20
2009,04,23,01,55,5.30
2009,04,23,01,56,5.30
2009,04,23,01,57,5.30
2009,04,23,01,58,5.30
2009,04,23,01,59,5.30
2009,04,23,02,00,5.30
2009,04,23,02,01,5.30
2009,04,23,02,02,5.30
2009,04,23,02,03,5.30
2009,04,23,02,04,5.30
2009,04,23,02,05,5.30
2009,04,23,02,06,5.30
2009,04,23,02,07,5.30
2009,04,23,02,08,5.30
2009,04,23,02,09,5.30
2009,04,23,02,10,5.30
2009,04,23,02,11,5.30
2009,04,23,02,12,5.30
2009,04,23,02,13,5.30
2009,04,23,02,14,5.30
2009,04,23,02,15,5.30
2009,04,23,02,16,5.30
2009,04,23,02,17,5.30
2009,04,23,02,18,5.30
2009,04,23,02,19,5.30
2009,04,23,02,20,5.30
2009,04,23,02,21,5.30
2009,04,23,02,22,5.30
2009,04,23,02,23,5.30
2009,04,23,02,24,5.30
2009,04,23,02,25,5.30
2009,04,23,02,26,5.30
2009,04,23,02,27,5.30
2009,04,23,02,28,5.30
2009,04,23,02,29,5.30
2009,04,23,02,30,5.30
2009,04,23,02,31,5.30
2009,04,23,02,32,5.30
2009,04,23,02,33,5.30
2009,04,23,02,34,5.30
2009,04,23,02,35,5.30
2009,04,23,02,36,5.30
2009,04,23,02,37,5.30
2009,04,23,02,38,5.30
2009,04,23,02,39,5.30
2009,04,23,02,40,5.30
2009,04,23,02,41,5.30
2009,04,23,02,42,5.30
2009,04,23,02,43,5.20
2009,04,23,02,44,5.20
2009,04,23,02,45,5.20
2009,04,23,02,46,5.20
2009,04,23,02,47,5.10
2009,04,23,02,48,5.10
2009,04,23,02,49,5.10
2009,04,23,02,50,5.10
2009,04,23,02,51,5.10
2009,04,23,02,52,5.10
2009,04,23,02,53,5.10
2009,04,23,02,54,5.10
2009,04,23,02,55,5.10
2009,04,23,02,56,5.10
2009,04,23,02,57,5.10
2009,04,23,02,58,4.90
2009,04,23,02,59,4.90
2009,04,23,03,00,4.90
2009,04,23,03,01,4.90
2009,04,23,03,02,4.90
2009,04,23,03,03,4.80
2009,04,23,03,04,4.80
2009,04,23,03,05,4.80
2009,04,23,03,06,4.70
2009,04,23,03,07,4.70
2009,04,23,03,08,4.70
2009,04,23,03,09,4.60
2009,04,23,03,10,4.60
2009,04,23,03,11,4.60
2009,04,23,03,12,4.50
2009,04,23,03,13,4.50
2009,04,23,03,14,4.40
2009,04,23,03,15,4.40
2009,04,23,03,16,4.30
2009,04,23,03,17,4.30
2009,04,23,03,18,4.20
2009,04,23,03,19,4.20
2009,04,23,03,20,4.20
2009,04,23,03,21,4.20
2009,04,23,03,22,4.10
2009,04,23,03,23,4.10
2009,04,23,03,24,4.00
2009,04,23,03,25,4.00
2009,04,23,03,26,4.00
2009,04,23,03,27,3.90
2009,04,23,03,28,3.90
2009,04,23,03,29,3.80
2009,04,23,03,30,3.80
2009,04,23,03,31,3.80
2009,04,23,03,32,3.80
2009,04,23,03,33,3.80
2009,04,23,03,34,3.70
2009,04,23,03,35,3.70
2009,04,23,03,36,3.70
2009,04,23,03,37,3.70
2009,04,23,03,38,3.60
2009,04,23,03,39,3.60
2009,04,23,03,40,3.60
2009,04,23,03,41,3.60
2009,04,23,03,42,3.60
2009,04,23,03,43,3.60
2009,04,23,03,44,3.50
2009,04,23,03,45,3.50
2009,04,23,03,46,3.50
2009,04,23,03,47,3.50
2009,04,23,03,48,3.50
2009,04,23,03,49,3.50
2009,04,23,03,50,3.50
2009,04,23,03,51,3.50
2009,04,23,03,52,3.50
2009,04,23,03,53,3.50
2009,04,23,03,54,3.50
2009,04,23,03,55,3.50
2009,04,23,03,56,3.50
2009,04,23,03,57,3.50
2009,04,23,03,58,3.40
2009,04,23,03,59,3.40
2009,04,23,04,00,3.40
2009,04,23,04,01,3.40
2009,04,23,04,02,3.30
2009,04,23,04,03,3.30
2009,04,23,04,04,3.30
2009,04,23,04,05,3.30
2009,04,23,04,06,3.30
2009,04,23,04,07,3.30
2009,04,23,04,08,3.20
2009,04,23,04,09,3.20
2009,04,23,04,10,3.20
2009,04,23,04,11,3.10
2009,04,23,04,12,3.10
2009,04,23,04,13,3.10
2009,04,23,04,14,3.10
2009,04,23,04,15,3.10
2009,04,23,04,16,3.10
2009,04,23,04,17,3.10
2009,04,23,04,18,3.00
2009,04,23,04,19,2.90
2009,04,23,04,20,2.90
2009,04,23,04,21,2.90
2009,04,23,04,22,2.90
2009,04,23,04,23,2.90
2009,04,23,04,24,2.90
2009,04,23,04,25,2.90
2009,04,23,04,26,2.90
2009,04,23,04,27,2.90
2009,04,23,04,28,2.90
2009,04,23,04,29,2.90
2009,04,23,04,30,2.90
2009,04,23,04,31,2.90
2009,04,23,04,32,2.90
2009,04,23,04,33,2.90
2009,04,23,04,34,2.90
2009,04,23,04,35,2.90
2009,04,23,04,36,2.90
2009,04,23,04,37,2.90
2009,04,23,04,38,2.90
2009,04,23,04,39,2.90
2009,04,23,04,40,2.90
2009,04,23,04,41,2.90
2009,04,23,04,42,2.90
2009,04,23,04,43,2.90
2009,04,23,04,44,2.90
2009,04,23,04,45,2.90
2009,04,23,04,46,2.90
2009,04,23,04,47,2.90
2009,04,23,04,48,2.90
2009,04,23,04,49,2.90
2009,04,23,04,50,2.90
2009,04,23,04,51,2.90
2009,04,23,04,52,2.90
2009,04,23,04,53,2.90
2009,04,23,04,54,2.90
2009,04,23,04,55,2.90
2009,04,23,04,56,2.90
2009,04,23,04,57,2.90
2009,04,23,04,58,2.90
2009,04,23,04,59,2.90
2009,04,23,05,00,2.90
2009,04,23,05,01,2.90
2009,04,23,05,02,2.90
2009,04,23,05,03,2.90
2009,04,23,05,04,2.90
2009,04,23,05,05,2.90
2009,04,23,05,06,2.90
2009,04,23,05,07,2.90
2009,04,23,05,08,2.90
2009,04,23,05,09,2.90
2009,04,23,05,10,2.90
2009,04,23,05,11,2.90
2009,04,23,05,12,2.90
2009,04,23,05,13,2.90
2009,04,23,05,14,2.90
2009,04,23,05,15,2.90
2009,04,23,05,16,2.90
2009,04,23,05,17,2.90
2009,04,23,05,18,2.90
2009,04,23,05,19,2.80
2009,04,23,05,20,2.80
2009,04,23,05,21,2.80
2009,04,23,05,22,2.80
2009,04,23,05,23,2.80
2009,04,23,05,24,2.80
2009,04,23,05,25,2.80
2009,04,23,05,26,2.80
2009,04,23,05,27,2.80
2009,04,23,05,28,2.80
2009,04,23,05,29,2.80
2009,04,23,05,30,2.80
2009,04,23,05,31,2.80
2009,04,23,05,32,2.80
2009,04,23,05,33,2.80
2009,04,23,05,34,2.80
2009,04,23,05,35,2.80
2009,04,23,05,36,2.80
2009,04,23,05,37,2.80
2009,04,23,05,38,2.80
2009,04,23,05,39,2.80
2009,04,23,05,40,2.80
2009,04,23,05,41,2.80
2009,04,23,05,42,2.80
2009,04,23,05,43,2.80
2009,04,23,05,44,2.80
2009,04,23,05,45,2.80
2009,04,23,05,46,2.80
2009,04,23,05,47,2.80
2009,04,23,05,48,2.80
2009,04,23,05,49,2.80
2009,04,23,05,50,2.80
2009,04,23,05,51,2.80
2009,04,23,05,52,2.80
2009,04,23,05,53,2.80
2009,04,23,05,54,2.80
2009,04,23,05,55,2.80
2009,04,23,05,56,2.80
2009,04,23,05,57,2.80
2009,04,23,05,58,2.80
2009,04,23,05,59,2.80
2009,04,23,06,00,2.80
2009,04,23,06,01,2.80
2009,04,23,06,02,2.80
2009,04,23,06,03,2.70
2009,04,23,06,04,2.70
2009,04,23,06,05,2.70
2009,04,23,06,06,2.70
2009,04,23,06,07,2.70
2009,04,23,06,08,2.70
2009,04,23,06,09,2.70
2009,04,23,06,10,2.70
2009,04,23,06,11,2.60
2009,04,23,06,12,2.60
2009,04,23,06,13,2.60
2009,04,23,06,14,2.60
2009,04,23,06,15,2.50
2009,04,23,06,16,2.50
2009,04,23,06,17,2.50
2009,04,23,06,18,2.50
2009,04,23,06,19,2.40
2009,04,23,06,20,2.40
2009,04,23,06,21,2.40
2009,04,23,06,22,2.40
2009,04,23,06,23,2.30
2009,04,23,06,24,2.30
2009,04,23,06,25,2.30
2009,04,23,06,26,2.30
2009,04,23,06,27,2.30
2009,04,23,06,28,2.30
2009,04,23,06,29,2.30
2009,04,23,06,30,2.30
2009,04,23,06,31,2.30
2009,04,23,06,32,2.30
2009,04,23,06,33,2.30
2009,04,23,06,34,2.30
2009,04,23,06,35,2.30
2009,04,23,06,36,2.30
2009,04,23,06,37,2.30
2009,04,23,06,38,2.40
2009,04,23,06,39,2.40
2009,04,23,06,40,2.40
2009,04,23,06,41,2.40
2009,04,23,06,42,2.40
2009,04,23,06,43,2.50
2009,04,23,06,44,2.50
2009,04,23,06,45,2.50
2009,04,23,06,46,2.50
2009,04,23,06,47,2.50
2009,04,23,06,48,2.50
2009,04,23,06,49,2.60
2009,04,23,06,50,2.60
2009,04,23,06,51,2.60
2009,04,23,06,52,2.60
2009,04,23,06,53,2.60
2009,04,23,06,54,2.70
2009,04,23,06,55,2.70
2009,04,23,06,56,2.70
2009,04,23,06,57,2.70
2009,04,23,06,58,2.70
2009,04,23,06,59,2.70
2009,04,23,07,00,2.70
2009,04,23,07,01,2.70
2009,04,23,07,02,2.70
2009,04,23,07,03,2.70
2009,04,23,07,04,2.70
2009,04,23,07,05,2.70
2009,04,23,07,06,2.70
2009,04,23,07,07,2.70
2009,04,23,07,08,2.70
2009,04,23,07,09,2.70
2009,04,23,07,10,2.80
2009,04,23,07,11,2.80
2009,04,23,07,12,2.80
2009,04,23,07,13,2.90
2009,04,23,07,14,2.90
2009,04,23,07,15,2.90
2009,04,23,07,16,2.90
2009,04,23,07,17,3.00
2009,04,23,07,18,3.10
2009,04,23,07,19,3.10
2009,04,23,07,20,3.20
2009,04,23,07,21,3.20
2009,04,23,07,22,3.30
2009,04,23,07,23,3.30
2009,04,23,07,24,3.30
2009,04,23,07,25,3.40
2009,04,23,07,26,3.50
2009,04,23,07,27,3.50
2009,04,23,07,28,3.60
2009,04,23,07,29,3.70
2009,04,23,07,30,3.80
2009,04,23,07,31,3.80
2009,04,23,07,32,3.90
2009,04,23,07,33,4.00
2009,04,23,07,34,4.00
2009,04,23,07,35,4.10
2009,04,23,07,36,4.10
2009,04,23,07,37,4.20
2009,04,23,07,38,4.20
2009,04,23,07,39,4.20
2009,04,23,07,40,4.30
2009,04,23,07,41,4.40
2009,04,23,07,42,4.40
2009,04,23,07,43,4.50
2009,04,23,07,44,4.50
2009,04,23,07,45,4.50
2009,04,23,07,46,4.60
2009,04,23,07,47,4.60
2009,04,23,07,48,4.60
2009,04,23,07,49,4.60
2009,04,23,07,50,4.70
2009,04,23,07,51,4.80
2009,04,23,07,52,4.80
2009,04,23,07,53,4.90
2009,04,23,07,54,4.90
2009,04,23,07,55,5.00
2009,04,23,07,56,5.10
2009,04,23,07,57,5.10
2009,04,23,07,58,5.20
2009,04,23,07,59,5.20
2009,04,23,08,00,5.30
2009,04,23,08,01,5.40
2009,04,23,08,02,5.50
2009,04,23,08,03,5.60
2009,04,23,08,04,5.60
2009,04,23,08,05,5.70
2009,04,23,08,06,5.80
2009,04,23,08,07,5.90
2009,04,23,08,08,6.00
2009,04,23,08,09,6.10
2009,04,23,08,10,6.20
2009,04,23,08,11,6.20
2009,04,23,08,12,6.30
2009,04,23,08,13,6.30
2009,04,23,08,14,6.40
2009,04,23,08,15,6.40
2009,04,23,08,16,6.40
2009,04,23,08,17,6.40
2009,04,23,08,18,6.40
2009,04,23,08,19,6.50
2009,04,23,08,20,6.60
2009,04,23,08,21,6.60
2009,04,23,08,22,6.60
2009,04,23,08,23,6.60
2009,04,23,08,24,6.60
2009,04,23,08,25,6.60
2009,04,23,08,26,6.60
2009,04,23,08,27,6.60
2009,04,23,08,28,6.60
2009,04,23,08,29,6.70
2009,04,23,08,30,6.70
2009,04,23,08,31,6.80
2009,04,23,08,32,6.80
2009,04,23,08,33,6.80
2009,04,23,08,34,6.80
2009,04,23,08,35,6.90
2009,04,23,08,36,7.00
2009,04,23,08,37,7.00
2009,04,23,08,38,7.10
2009,04,23,08,39,7.20
2009,04,23,08,40,7.20
2009,04,23,08,41,7.20
2009,04,23,08,42,7.20
2009,04,23,08,43,7.30
2009,04,23,08,44,7.30
2009,04,23,08,45,7.30
2009,04,23,08,46,7.30
2009,04,23,08,47,7.30
2009,04,23,08,48,7.30
2009,04,23,08,49,7.30
2009,04,23,08,50,7.30
2009,04,23,08,51,7.40
2009,04,23,08,52,7.50
2009,04,23,08,53,7.60
2009,04,23,08,54,7.70
2009,04,23,08,55,7.80
2009,04,23,08,56,7.80
2009,04,23,08,57,7.90
2009,04,23,08,58,7.90
2009,04,23,08,59,8.00
2009,04,23,09,00,8.00
2009,04,23,09,01,8.00
2009,04,23,09,02,8.10
2009,04,23,09,03,8.10
2009,04,23,09,04,8.20
2009,04,23,09,05,8.20
2009,04,23,09,06,8.30
2009,04,23,09,07,8.30
2009,04,23,09,08,8.30
2009,04,23,09,09,8.30
2009,04,23,09,10,8.20
2009,04,23,09,11,8.20
2009,04,23,09,12,8.20
2009,04,23,09,13,8.20
2009,04,23,09,14,8.20
2009,04,23,09,15,8.30
2009,04,23,09,16,8.20
2009,04,23,09,17,8.20
2009,04,23,09,18,8.30
2009,04,23,09,19,8.40
2009,04,23,09,20,8.40
2009,04,23,09,21,8.40
2009,04,23,09,22,8.30
2009,04,23,09,23,8.40
2009,04,23,09,24,8.40
2009,04,23,09,25,8.40
2009,04,23,09,26,8.40
2009,04,23,09,27,8.50
2009,04,23,09,28,8.40
2009,04,23,09,29,8.40
2009,04,23,09,30,8.40
2009,04,23,09,31,8.40
2009,04,23,09,32,8.40
2009,04,23,09,33,8.30
2009,04,23,09,34,8.20
2009,04,23,09,35,8.20
2009,04,23,09,36,8.20
2009,04,23,09,37,8.20
2009,04,23,09,38,8.20
2009,04,23,09,39,8.30
2009,04,23,09,40,8.40
2009,04,23,09,41,8.50
2009,04,23,09,42,8.60
2009,04,23,09,43,8.70
2009,04,23,09,44,8.70
2009,04,23,09,45,8.70
2009,04,23,09,46,8.70
2009,04,23,09,47,8.70
2009,04,23,09,48,8.60
2009,04,23,09,49,8.60
2009,04,23,09,50,8.50
2009,04,23,09,51,8.50
2009,04,23,09,52,8.60
2009,04,23,09,53,8.60
2009,04,23,09,54,8.70
2009,04,23,09,55,8.70
2009,04,23,09,56,8.80
2009,04,23,09,57,8.80
2009,04,23,09,58,8.90
2009,04,23,09,59,9.10
2009,04,23,10,00,9.20
2009,04,23,10,01,9.30
2009,04,23,10,02,9.30
2009,04,23,10,03,9.30
2009,04,23,10,04,9.30
2009,04,23,10,05,9.20
2009,04,23,10,06,9.20
2009,04,23,10,07,9.00
2009,04,23,10,08,9.00
2009,04,23,10,09,9.00
2009,04,23,10,10,9.10
2009,04,23,10,11,9.20
2009,04,23,10,12,9.20
2009,04,23,10,13,9.20
2009,04,23,10,14,9.30
2009,04,23,10,15,9.40
2009,04,23,10,16,9.50
2009,04,23,10,17,9.50
2009,04,23,10,18,9.50
2009,04,23,10,19,9.30
2009,04,23,10,20,9.20
2009,04,23,10,21,9.10
2009,04,23,10,22,9.00
2009,04,23,10,23,8.90
2009,04,23,10,24,8.80
2009,04,23,10,25,8.70
2009,04,23,10,26,8.70
2009,04,23,10,27,8.80
2009,04,23,10,28,8.90
2009,04,23,10,29,8.80
2009,04,23,10,30,8.80
2009,04,23,10,31,8.80
2009,04,23,10,32,8.90
2009,04,23,10,33,9.00
2009,04,23,10,34,9.10
2009,04,23,10,35,9.20
2009,04,23,10,36,9.20
2009,04,23,10,37,9.30
2009,04,23,10,38,9.40
2009,04,23,10,39,9.30
2009,04,23,10,40,9.30
2009,04,23,10,41,9.40
2009,04,23,10,42,9.50
2009,04,23,10,43,9.60
2009,04,23,10,44,9.70
2009,04,23,10,45,9.70
2009,04,23,10,46,9.80
2009,04,23,10,47,9.90
2009,04,23,10,48,10.10
2009,04,23,10,49,10.10
2009,04,23,10,50,10.00
2009,04,23,10,51,9.90
2009,04,23,10,52,9.90
2009,04,23,10,53,9.80
2009,04,23,10,54,9.60
2009,04,23,10,55,9.60
2009,04,23,10,56,9.50
2009,04,23,10,57,9.40
2009,04,23,10,58,9.40
2009,04,23,10,59,9.40
2009,04,23,11,00,9.40
2009,04,23,11,01,9.50
2009,04,23,11,02,9.70
2009,04,23,11,03,9.70
2009,04,23,11,04,9.70
2009,04,23,11,05,9.70
2009,04,23,11,06,9.70
2009,04,23,11,07,9.60
2009,04,23,11,08,9.50
2009,04,23,11,09,9.40
2009,04,23,11,10,9.30
2009,04,23,11,11,9.20
2009,04,23,11,12,9.10
2009,04,23,11,13,9.00
2009,04,23,11,14,8.90
2009,04,23,11,15,9.00
2009,04,23,11,16,9.00
2009,04,23,11,17,9.00
2009,04,23,11,18,9.00
2009,04,23,11,19,9.10
2009,04,23,11,20,9.10
2009,04,23,11,21,9.10
2009,04,23,11,22,9.20
2009,04,23,11,23,9.30
2009,04,23,11,24,9.30
2009,04,23,11,25,9.20
2009,04,23,11,26,9.10
2009,04,23,11,27,9.10
2009,04,23,11,28,9.00
2009,04,23,11,29,9.00
2009,04,23,11,30,9.00
2009,04,23,11,31,9.00
2009,04,23,11,32,8.90
2009,04,23,11,33,8.70
2009,04,23,11,34,8.50
2009,04,23,11,35,8.40
2009,04,23,11,36,8.40
2009,04,23,11,37,8.30
2009,04,23,11,38,8.10
2009,04,23,11,39,8.10
2009,04,23,11,40,8.10
2009,04,23,11,41,8.20
2009,04,23,11,42,8.20
2009,04,23,11,43,8.20
2009,04,23,11,44,8.20
2009,04,23,11,45,8.20
2009,04,23,11,46,8.20
2009,04,23,11,47,8.10
2009,04,23,11,48,8.00
2009,04,23,11,49,8.00
2009,04,23,11,50,8.00
2009,04,23,11,51,8.00
2009,04,23,11,52,8.00
2009,04,23,11,53,7.90
2009,04,23,11,54,7.90
2009,04,23,11,55,7.80
2009,04,23,11,56,7.70
2009,04,23,11,57,7.70
2009,04,23,11,58,7.60
2009,04,23,11,59,7.60
2009,04,23,12,00,7.60
2009,04,23,12,01,7.60
2009,04,23,12,02,7.60
2009,04,23,12,03,7.60
2009,04,23,12,04,7.60
2009,04,23,12,05,7.60
2009,04,23,12,06,7.70
2009,04,23,12,07,7.80
2009,04,23,12,08,8.00
2009,04,23,12,09,8.00
2009,04,23,12,10,8.10
2009,04,23,12,11,8.00
2009,04,23,12,12,7.90
2009,04,23,12,13,8.00
2009,04,23,12,14,8.00
2009,04,23,12,15,8.20
2009,04,23,12,16,8.40
2009,04,23,12,17,8.50
2009,04,23,12,18,8.70
2009,04,23,12,19,8.70
2009,04,23,12,20,8.70
2009,04,23,12,21,8.70
2009,04,23,12,22,8.70
2009,04,23,12,23,8.70
2009,04,23,12,24,8.70
2009,04,23,12,25,8.70
2009,04,23,12,26,8.90
2009,04,23,12,27,9.10
2009,04,23,12,28,9.20
2009,04,23,12,29,9.30
2009,04,23,12,30,9.30
2009,04,23,12,31,9.40
2009,04,23,12,32,9.60
2009,04,23,12,33,9.70
2009,04,23,12,34,9.80
2009,04,23,12,35,9.90
2009,04,23,12,36,10.10
2009,04,23,12,37,10.20
2009,04,23,12,38,10.30
2009,04,23,12,39,10.50
2009,04,23,12,40,10.60
2009,04,23,12,41,10.60
2009,04,23,12,42,10.70
2009,04,23,12,43,10.80
2009,04,23,12,44,10.90
2009,04,23,12,45,10.90
2009,04,23,12,46,10.90
2009,04,23,12,47,10.90
2009,04,23,12,48,10.80
2009,04,23,12,49,10.60
2009,04,23,12,50,10.60
2009,04,23,12,51,10.80
2009,04,23,12,52,10.90
2009,04,23,12,53,11.00
2009,04,23,12,54,11.10
2009,04,23,12,55,11.10
2009,04,23,12,56,11.20
2009,04,23,12,57,11.20
2009,04,23,12,58,11.20
2009,04,23,12,59,11.10
2009,04,23,13,00,11.20
2009,04,23,13,01,11.10
2009,04,23,13,02,11.20
2009,04,23,13,03,11.20
2009,04,23,13,04,11.30
2009,04,23,13,05,11.40
2009,04,23,13,06,11.30
2009,04,23,13,07,11.10
2009,04,23,13,08,11.20
2009,04,23,13,09,11.20
2009,04,23,13,10,11.20
2009,04,23,13,11,11.10
2009,04,23,13,12,11.00
2009,04,23,13,13,10.90
2009,04,23,13,14,10.90
2009,04,23,13,15,10.90
2009,04,23,13,16,10.70
2009,04,23,13,17,10.70
2009,04,23,13,18,10.60
2009,04,23,13,19,10.50
2009,04,23,13,20,10.50
2009,04,23,13,21,10.60
2009,04,23,13,22,10.70
2009,04,23,13,23,10.80
2009,04,23,13,24,10.90
2009,04,23,13,25,10.90
2009,04,23,13,26,10.90
2009,04,23,13,27,10.90
2009,04,23,13,28,10.90
2009,04,23,13,29,10.90
2009,04,23,13,30,10.90
2009,04,23,13,31,10.70
2009,04,23,13,32,10.60
2009,04,23,13,33,10.50
2009,04,23,13,34,10.40
2009,04,23,13,35,10.40
2009,04,23,13,36,10.30
2009,04,23,13,37,10.10
2009,04,23,13,38,10.10
2009,04,23,13,39,10.00
2009,04,23,13,40,9.90
2009,04,23,13,41,9.90
2009,04,23,13,42,9.90
2009,04,23,13,43,9.90
2009,04,23,13,44,9.90
2009,04,23,13,45,9.80
2009,04,23,13,46,9.70
2009,04,23,13,47,9.70
2009,04,23,13,48,9.60
2009,04,23,13,49,9.60
2009,04,23,13,50,9.60
2009,04,23,13,51,9.60
2009,04,23,13,52,9.60
2009,04,23,13,53,9.60
2009,04,23,13,54,9.60
2009,04,23,13,55,9.60
2009,04,23,13,56,9.70
2009,04,23,13,57,9.60
2009,04,23,13,58,9.60
2009,04,23,13,59,9.60
2009,04,23,14,00,9.70
2009,04,23,14,01,9.90
2009,04,23,14,02,10.10
2009,04,23,14,03,10.10
2009,04,23,14,04,10.20
2009,04,23,14,05,10.30
2009,04,23,14,06,10.30
2009,04,23,14,07,10.30
2009,04,23,14,08,10.20
2009,04,23,14,09,10.10
2009,04,23,14,10,10.20
2009,04,23,14,11,10.20
2009,04,23,14,12,10.30
2009,04,23,14,13,10.70
2009,04,23,14,14,10.90
2009,04,23,14,15,10.90
2009,04,23,14,16,10.80
2009,04,23,14,17,10.80
2009,04,23,14,18,10.80
2009,04,23,14,19,10.80
2009,04,23,14,20,10.70
2009,04,23,14,21,10.60
2009,04,23,14,22,10.60
2009,04,23,14,23,10.60
2009,04,23,14,24,10.50
2009,04,23,14,25,10.40
2009,04,23,14,26,10.60
2009,04,23,14,27,10.60
2009,04,23,14,28,10.60
2009,04,23,14,29,10.70
2009,04,23,14,30,10.80
2009,04,23,14,31,10.80
2009,04,23,14,32,10.80
2009,04,23,14,33,10.70
2009,04,23,14,34,10.60
2009,04,23,14,35,10.60
2009,04,23,14,36,10.40
2009,04,23,14,37,10.40
2009,04,23,14,38,10.60
2009,04,23,14,39,10.70
2009,04,23,14,40,10.80
2009,04,23,14,41,10.90
2009,04,23,14,42,11.00
2009,04,23,14,43,11.00
2009,04,23,14,44,10.90
2009,04,23,14,45,10.90
2009,04,23,14,46,11.00
2009,04,23,14,47,11.10
2009,04,23,14,48,11.10
2009,04,23,14,49,11.20
2009,04,23,14,50,11.30
2009,04,23,14,51,11.30
2009,04,23,14,52,11.40
2009,04,23,14,53,11.40
2009,04,23,14,54,11.60
2009,04,23,14,55,11.60
2009,04,23,14,56,11.80
2009,04,23,14,57,11.90
2009,04,23,14,58,11.80
2009,04,23,14,59,11.80
2009,04,23,15,00,11.80
2009,04,23,15,01,11.80
2009,04,23,15,02,11.80
2009,04,23,15,03,11.80
2009,04,23,15,04,11.70
2009,04,23,15,05,11.50
2009,04,23,15,06,11.20
2009,04,23,15,07,11.00
2009,04,23,15,08,10.90
2009,04,23,15,09,10.80
2009,04,23,15,10,10.70
2009,04,23,15,11,10.60
2009,04,23,15,12,10.60
2009,04,23,15,13,10.60
2009,04,23,15,14,10.60
2009,04,23,15,15,10.60
2009,04,23,15,16,10.60
2009,04,23,15,17,10.60
2009,04,23,15,18,10.60
2009,04,23,15,19,10.60
2009,04,23,15,20,10.60
2009,04,23,15,21,10.60
2009,04,23,15,22,10.60
2009,04,23,15,23,10.70
2009,04,23,15,24,10.70
2009,04,23,15,25,10.60
2009,04,23,15,26,10.60
2009,04,23,15,27,10.70
2009,04,23,15,28,10.70
2009,04,23,15,29,10.80
2009,04,23,15,30,10.80
2009,04,23,15,31,10.70
2009,04,23,15,32,10.60
2009,04,23,15,33,10.60
2009,04,23,15,34,10.60
2009,04,23,15,35,10.60
2009,04,23,15,36,10.60
2009,04,23,15,37,10.60
2009,04,23,15,38,10.60
2009,04,23,15,39,10.50
2009,04,23,15,40,10.40
2009,04,23,15,41,10.40
2009,04,23,15,42,10.40
2009,04,23,15,43,10.30
2009,04,23,15,44,10.30
2009,04,23,15,45,10.40
2009,04,23,15,46,10.40
2009,04,23,15,47,10.50
2009,04,23,15,48,10.60
2009,04,23,15,49,10.60
2009,04,23,15,50,10.60
2009,04,23,15,51,10.60
2009,04,23,15,52,10.60
2009,04,23,15,53,10.60
2009,04,23,15,54,10.60
2009,04,23,15,55,10.50
2009,04,23,15,56,10.40
2009,04,23,15,57,10.40
2009,04,23,15,58,10.40
2009,04,23,15,59,10.30
2009,04,23,16,00,10.30
2009,04,23,16,01,10.30
2009,04,23,16,02,10.20
2009,04,23,16,03,10.10
2009,04,23,16,04,10.10
2009,04,23,16,05,10.00
2009,04,23,16,06,9.90
2009,04,23,16,07,9.90
2009,04,23,16,08,9.90
2009,04,23,16,09,9.90
2009,04,23,16,10,9.90
2009,04,23,16,11,9.90
2009,04,23,16,12,9.90
2009,04,23,16,13,9.90
2009,04,23,16,14,9.90
2009,04,23,16,15,9.90
2009,04,23,16,16,9.90
2009,04,23,16,17,9.90
2009,04,23,16,18,10.00
2009,04,23,16,19,10.10
2009,04,23,16,20,10.10
2009,04,23,16,21,10.10
2009,04,23,16,22,10.10
2009,04,23,16,23,10.20
2009,04,23,16,24,10.20
2009,04,23,16,25,10.30
2009,04,23,16,26,10.30
2009,04,23,16,27,10.30
2009,04,23,16,28,10.30
2009,04,23,16,29,10.20
2009,04,23,16,30,10.20
2009,04,23,16,31,10.20
2009,04,23,16,32,10.30
2009,04,23,16,33,10.30
2009,04,23,16,34,10.40
2009,04,23,16,35,10.40
2009,04,23,16,36,10.40
2009,04,23,16,37,10.50
2009,04,23,16,38,10.60
2009,04,23,16,39,10.60
2009,04,23,16,40,10.70
2009,04,23,16,41,10.70
2009,04,23,16,42,10.70
2009,04,23,16,43,10.80
2009,04,23,16,44,10.90
2009,04,23,16,45,10.90
2009,04,23,16,46,10.90
2009,04,23,16,47,10.90
2009,04,23,16,48,10.90
2009,04,23,16,49,10.90
2009,04,23,16,50,10.90
2009,04,23,16,51,11.00
2009,04,23,16,52,11.10
2009,04,23,16,53,11.20
2009,04,23,16,54,11.30
2009,04,23,16,55,11.30
2009,04,23,16,56,11.30
2009,04,23,16,57,11.30
2009,04,23,16,58,11.30
2009,04,23,16,59,11.30
2009,04,23,17,00,11.30
2009,04,23,17,01,11.30
2009,04,23,17,02,11.40
2009,04,23,17,03,11.50
2009,04,23,17,04,11.60
2009,04,23,17,05,11.60
2009,04,23,17,06,11.70
2009,04,23,17,07,11.70
2009,04,23,17,08,11.70
2009,04,23,17,09,11.80
2009,04,23,17,10,11.70
2009,04,23,17,11,11.80
2009,04,23,17,12,11.80
2009,04,23,17,13,11.80
2009,04,23,17,14,11.80
2009,04,23,17,15,11.80
2009,04,23,17,16,11.80
2009,04,23,17,17,11.70
2009,04,23,17,18,11.60
2009,04,23,17,19,11.60
2009,04,23,17,20,11.60
2009,04,23,17,21,11.60
2009,04,23,17,22,11.60
2009,04,23,17,23,11.70
2009,04,23,17,24,11.70
2009,04,23,17,25,11.80
2009,04,23,17,26,11.80
2009,04,23,17,27,11.80
2009,04,23,17,28,11.80
2009,04,23,17,29,11.90
2009,04,23,17,30,11.90
2009,04,23,17,31,11.90
2009,04,23,17,32,11.90
2009,04,23,17,33,11.90
2009,04,23,17,34,11.90
2009,04,23,17,35,12.00
2009,04,23,17,36,12.00
2009,04,23,17,37,12.00
2009,04,23,17,38,11.90
2009,04,23,17,39,11.90
2009,04,23,17,40,11.90
2009,04,23,17,41,11.80
2009,04,23,17,42,11.80
2009,04,23,17,43,11.80
2009,04,23,17,44,11.80
2009,04,23,17,45,11.80
2009,04,23,17,46,11.90
2009,04,23,17,47,11.90
2009,04,23,17,48,12.00
2009,04,23,17,49,12.00
2009,04,23,17,50,12.00
2009,04,23,17,51,11.80
2009,04,23,17,52,11.80
2009,04,23,17,53,11.80